Siemreap, Cambodia

2:12 PM +07 on September 25, 2017 (GMT +0700)
Siem Reap

Weather History for VDSR - August, 2013

Change the Weather History Date:

Thursday, August 15, 2013

  Actual Average Record
Temperature  
Mean Temperature 82 °F -  
Max Temperature 86 °F - - ()
Min Temperature 77 °F - - ()
Cooling Degree Days 16    
Growing Degree Days 32 (Base 50)    
Moisture  
Dew Point 75 °F    
Average Humidity 81    
Maximum Humidity 100    
Minimum Humidity 70    
Precipitation  
Precipitation 0.00 in - - ()
Sea Level Pressure  
Sea Level Pressure 29.76 in    
Wind  
Wind Speed 2 mph ()    
Max Wind Speed 14 mph    
Max Gust Speed 23 mph    
Visibility 5.7 miles    
Events Rain    
T = Trace of Precipitation, MM = Missing Value Source: Averaged Metar Reports

Daily Weather History Graph

Daily Weather History Graph

Search for Another Location

Airport or City:

Trip Planner

Search our weather history database for the weather conditions in past years. The results will help you decide how hot, cold, wet, or windy it might be!

Date:

Astronomy

Aug. 15, 2013 Rise Set
Actual Time 5:51 AM +07 6:26 PM +07
Civil Twilight 5:29 AM +07 6:48 PM +07
Nautical Twilight 5:04 AM +07 7:13 PM +07
Astronomical Twilight 4:38 AM +07 7:39 PM +07
Moon 12:53 PM +07 (8/15) No Moon Set
Length of Visible Light 13h 18m
Length of Day
12h 34m
First Quarter, 59% of the Moon is Illuminated
Aug 15
First Quarter
Aug 21
Full
Aug 28
Last Quarter
Sep 5
New
Sep 13
First Quarter

Hourly Weather History & Observations

Time (+07) Temp. Heat Index Dew Point Humidity Pressure Visibility Wind Dir Wind Speed Gust Speed Precip Events Conditions
12:00 AM 80.6 °F 89.3 °F 80.6 °F 100% 29.74 in 5.6 mi WSW 2.3 mph - N/A   Scattered Clouds
12:30 AM 80.6 °F 85.4 °F 73.4 °F 79% 29.74 in 5.6 mi Calm Calm - N/A   Scattered Clouds
1:00 AM 80.6 °F 85.4 °F 73.4 °F 79% 29.74 in 5.6 mi Calm Calm - N/A   Scattered Clouds
7:00 AM 80.6 °F 86.2 °F 75.2 °F 84% 29.74 in 6.2 mi Calm Calm - N/A   Scattered Clouds
7:30 AM 80.6 °F 86.2 °F 75.2 °F 84% 29.77 in 6.2 mi Calm Calm - N/A   Scattered Clouds
8:00 AM 80.6 °F 86.2 °F 75.2 °F 84% 29.77 in 6.2 mi Variable 3.5 mph - N/A   Scattered Clouds
8:30 AM 82.4 °F 89.5 °F 75.2 °F 79% 29.77 in 6.2 mi SW 6.9 mph - N/A   Scattered Clouds
9:00 AM 82.4 °F 89.5 °F 75.2 °F 79% 29.80 in 6.2 mi WSW 6.9 mph - N/A   Scattered Clouds
9:30 AM 82.4 °F 89.5 °F 75.2 °F 79% 29.80 in 6.2 mi WSW 4.6 mph - N/A   Scattered Clouds
10:00 AM 84.2 °F 92.3 °F 75.2 °F 74% 29.80 in 6.2 mi Variable 1.2 mph - N/A   Scattered Clouds
10:30 AM 84.2 °F 92.3 °F 75.2 °F 74% 29.80 in 6.2 mi Calm Calm - N/A   Scattered Clouds
11:00 AM 84.2 °F 92.3 °F 75.2 °F 74% 29.80 in 6.2 mi Calm Calm - N/A   Scattered Clouds
11:30 AM 86.0 °F 95.1 °F 75.2 °F 70% 29.80 in 6.2 mi Calm Calm - N/A   Scattered Clouds
12:00 PM 84.2 °F 92.3 °F 75.2 °F 74% 29.80 in 6.2 mi Calm Calm - N/A   Scattered Clouds
12:30 PM 86.0 °F 95.1 °F 75.2 °F 70% 29.77 in 6.2 mi WSW 13.8 mph - N/A   Scattered Clouds
1:00 PM 86.0 °F 95.1 °F 75.2 °F 70% 29.74 in 6.2 mi SW 12.7 mph - N/A   Scattered Clouds
1:30 PM 86.0 °F 95.1 °F 75.2 °F 70% 29.74 in 6.2 mi Calm Calm - N/A   Scattered Clouds
2:00 PM 86.0 °F 95.1 °F 75.2 °F 70% 29.71 in 6.2 mi Calm Calm - N/A   Scattered Clouds
2:30 PM 86.0 °F 95.1 °F 75.2 °F 70% 29.71 in 6.2 mi WSW 6.9 mph - N/A   Scattered Clouds
3:00 PM 84.2 °F 92.3 °F 75.2 °F 74% 29.71 in 6.2 mi WSW 5.8 mph - N/A   Scattered Clouds
3:30 PM 84.2 °F 92.3 °F 75.2 °F 74% 29.71 in 3.1 mi Variable 3.5 mph - N/A Rain Rain
4:00 PM 78.8 °F - 75.2 °F 89% 29.71 in 1.9 mi West 6.9 mph - N/A Rain Rain
4:30 PM 77.0 °F - 73.4 °F 89% 29.71 in 4.3 mi WSW 11.5 mph 23.0 mph N/A Rain Light Rain
5:00 PM 78.8 °F - 75.2 °F 89% 29.71 in 5.6 mi Calm Calm - N/A   Scattered Clouds
5:30 PM 80.6 °F 86.2 °F 75.2 °F 84% 29.74 in 5.6 mi Calm Calm - N/A   Scattered Clouds
6:00 PM 80.6 °F 86.2 °F 75.2 °F 84% 29.74 in 5.6 mi Calm Calm - N/A   Scattered Clouds
6:30 PM 80.6 °F 87.1 °F 77.0 °F 89% 29.74 in 5.6 mi Variable 1.2 mph - N/A   Scattered Clouds
7:00 PM 82.4 °F 90.9 °F 77.0 °F 84% 29.74 in 5.6 mi Calm Calm - N/A   Scattered Clouds
7:30 PM 82.4 °F 90.9 °F 77.0 °F 84% 29.74 in 5.6 mi Calm Calm - N/A   Mostly Cloudy
8:00 PM 80.6 °F 87.1 °F 77.0 °F 89% 29.77 in 5.6 mi Variable 1.2 mph - N/A   Mostly Cloudy
8:30 PM 80.6 °F 86.2 °F 75.2 °F 84% 29.77 in 5.6 mi WSW 4.6 mph - N/A   Mostly Cloudy
9:00 PM 80.6 °F 86.2 °F 75.2 °F 84% 29.77 in 5.6 mi SW 3.5 mph - N/A   Mostly Cloudy
9:30 PM 80.6 °F 86.2 °F 75.2 °F 84% 29.77 in 5.6 mi SSW 3.5 mph - N/A   Mostly Cloudy
10:00 PM 80.6 °F 86.2 °F 75.2 °F 84% 29.77 in 5.6 mi SW 3.5 mph - N/A   Mostly Cloudy
10:30 PM 80.6 °F 86.2 °F 75.2 °F 84% 29.77 in 5.6 mi Calm Calm - N/A   Mostly Cloudy
11:00 PM 80.6 °F 86.2 °F 75.2 °F 84% 29.77 in 5.6 mi South 2.3 mph - N/A   Scattered Clouds
11:30 PM 78.8 °F - 75.2 °F 89% 29.77 in 5.6 mi SSW 1.2 mph - N/A   Scattered Clouds